This is the latest recevied weather packets stored in our database for station/object KM4CBK. If no packets are shown the sender has not sent any weather packets the latest 10 day(s).
| Time | Temp. | Humidity | Pressure | Rain* | Wind** | Luminosity | Snow |
|---|---|---|---|---|---|---|---|
| 1777761814 | 20° C | 46% | 1013.2 hPa | 0 mm | - | 32 W/m² | - |
| 1777761512 | 20.56° C | 45% | 1013.1 hPa | 0 mm | - | 43 W/m² | - |
| 1777761209 | 20° C | 41% | 1013.3 hPa | 0 mm | - | 38 W/m² | - |
| 1777760907 | 20.56° C | 42% | 1013.2 hPa | 0 mm | - | 66 W/m² | - |
| 1777760604 | 20.56° C | 44% | 1013.3 hPa | 0 mm | - | 49 W/m² | - |
| 1777760300 | 20.56° C | 43% | 1013.1 hPa | 0 mm | - | 102 W/m² | - |
| 1777759996 | 20.56° C | 43% | 1013.2 hPa | 0 mm | - | 83 W/m² | - |
| 1777759694 | 20° C | 42% | 1013 hPa | 0 mm | - | 35 W/m² | - |
| 1777759389 | 20.56° C | 43% | 1013.1 hPa | 0 mm | - | 56 W/m² | - |
| 1777759086 | 20.56° C | 44% | 1012.8 hPa | 0 mm | - | 39 W/m² | - |
| 1777758783 | 20.56° C | 42% | 1012.6 hPa | 0 mm | - | 38 W/m² | - |
| 1777758480 | 20.56° C | 43% | 1012.9 hPa | 0 mm | - | 209 W/m² | - |
| 1777758177 | 20.56° C | 43% | 1013 hPa | 0 mm | - | 139 W/m² | - |
| 1777757874 | 20.56° C | 41% | 1013.2 hPa | 0 mm | - | 78 W/m² | - |
| 1777757571 | 20.56° C | 42% | 1012.6 hPa | 0 mm | - | 269 W/m² | - |
| 1777757270 | 21.11° C | 44% | 1013 hPa | 0 mm | - | 42 W/m² | - |
| 1777756968 | 21.11° C | 43% | 1012.7 hPa | 0 mm | - | 61 W/m² | - |
| 1777756663 | 21.11° C | 43% | 1012.8 hPa | 0 mm | - | 50 W/m² | - |
| 1777756361 | 21.11° C | 42% | 1012.8 hPa | 0 mm | - | 87 W/m² | - |
| 1777756058 | 21.11° C | 43% | 1013 hPa | 0 mm | - | 393 W/m² | - |
| 1777755755 | 20.56° C | 43% | 1013 hPa | 0 mm | - | 420 W/m² | - |
| 1777755452 | 20.56° C | 43% | 1013.1 hPa | 0 mm | - | 202 W/m² | - |
| 1777755148 | 20.56° C | 43% | 1013 hPa | 0 mm | - | 422 W/m² | - |
| 1777754846 | 21.11° C | 42% | 1013 hPa | 0 mm | - | 365 W/m² | - |
| 1777754543 | 21.11° C | 44% | 1012.9 hPa | 0 mm | - | 98 W/m² | - |
* Rain latest hour (hover to see other rain measurements)
** Current wind speed in m/s (hover to see current wind gust speed)